DL1NUX-15 Weather Reports


time (UTC)temp
F
wind
direction
speed
knots
gust
knots
rain 1hr
in
rain 24hr
in
rain mn
in
humidity
%
barometer
mb
20260507092536 50 286 0.9 4.3 0.00 0.29 0.28 99 1013.5
20260507085537 50 272 1.7 4.3 0.00 0.29 0.28 99 1013.0
20260507083522 50 282 0.9 5.2 0.01 0.29 0.28 99 1012.9
20260507075525 49 277 1.7 4.3 0.01 0.29 0.28 99 1012.4
20260507073525 50 286 0.9 2.6 0.00 0.28 0.27 99 1012.1
20260507072525 50 268 0.0 0.9 0.00 0.28 0.27 99 1012.0
20260507071525 50 283 0.9 2.6 0.00 0.28 0.27 99 1011.8
20260507070525 50 285 1.7 4.3 0.00 0.28 0.27 99 1011.8
20260507064526 50 286 0.9 4.3 0.01 0.28 0.27 99 1011.6
20260507063526 50 276 1.7 4.3 0.02 0.28 0.27 99 1011.5
20260507062527 50 276 0.9 2.6 0.03 0.28 0.27 99 1011.4
20260507061527 50 271 1.7 2.6 0.05 0.28 0.27 99 1011.4
20260507050530 51 282 0.9 4.3 0.03 0.17 0.16 99 1010.4
20260507041516 51 254 0.9 2.6 0.03 0.15 0.14 99 1009.8
20260507035517 51 257 0.0 0.9 0.03 0.14 0.13 99 1009.6
20260507030520 51 274 0.9 1.7 0.04 0.12 0.11 99 1009.4
20260507024520 51 242 0.0 0.9 0.03 0.11 0.10 99 1009.2
20260507021522 51 266 0.0 0.9 0.05 0.09 0.08 99 1009.2
20260507020521 51 237 0.9 2.6 0.05 0.08 0.07 99 1009.2
20260507015522 52 267 0.9 4.3 0.05 0.08 0.07 99 1009.1
20260507013523 52 202 0.0 1.7 0.04 0.07 0.06 99 1009.0
20260507012525 52 269 0.9 2.6 0.02 0.06 0.04 99 1008.9
20260507010524 53 260 0.9 5.2 0.02 0.04 0.02 98 1009.0
20260507003525 53 273 0.9 4.3 0.02 0.04 0.02 98 1009.0
20260507000527 54 272 0.0 1.7 0.00 0.02 0.00 96 1008.8
20260506235527 54 281 0.0 0.9 0.00 0.02 0.00 96 1008.8
20260506234527 54 0.0 1.7 0.00 0.02 0.00 95 1008.8
20260506230529 54 0.0 0.0 0.00 0.02 0.00 96 1008.7
20260506225530 54 255 0.9 1.7 0.00 0.02 0.00 96 1008.6
20260506223530 55 261 0.0 0.9 0.01 0.02 0.00 96 1008.5
20260506221531 55 275 0.0 0.9 0.01 0.02 0.00 95 1008.4
20260506211534 55 0.0 0.0 0.00 0.01 0.01 92 1008.1
20260506205535 55 0.0 0.0 0.00 0.01 0.01 90 1008.0
20260506204535 56 0.0 0.0 0.00 0.01 0.01 89 1008.0
20260506202536 57 0.0 0.0 0.00 0.02 0.01 86 1008.0
20260506194537 58 281 0.9 2.6 0.00 0.02 0.01 84 1007.7
20260506191539 58 280 0.0 1.7 0.00 0.02 0.01 85 1007.4
20260506184540 59 0.0 0.0 0.00 0.09 0.01 84 1006.9
20260506183540 59 0.0 0.0 0.00 0.15 0.01 84 1006.6
20260506182542 59 0.0 0.0 0.00 0.17 0.01 84 1006.6
20260506173544 62 272 0.0 1.7 0.00 0.52 0.01 74 1006.3
20260506172543 62 269 0.0 0.9 0.00 0.63 0.01 72 1006.2
20260506171516 62 274 0.0 0.9 0.00 0.72 0.01 72 1006.2
20260506163517 63 282 0.9 2.6 0.00 0.76 0.01 70 1006.1
20260506155519 64 283 0.9 2.6 0.00 0.76 0.01 62 1006.2
20260506151521 65 272 0.9 2.6 0.00 0.76 0.01 61 1006.3
20260506150521 65 268 1.7 4.3 0.00 0.76 0.01 61 1006.3
20260506145521 66 224 0.9 1.7 0.00 0.76 0.01 61 1006.3
20260506144522 66 296 1.7 7.0 0.00 0.76 0.01 59 1006.2
20260506143522 67 263 0.9 5.2 0.00 0.76 0.01 58 1006.4
20260506142523 67 277 0.9 4.3 0.00 0.76 0.01 58 1006.5
20260506141523 67 239 1.7 6.1 0.00 0.76 0.01 59 1006.6
20260506140524 66 273 0.9 4.3 0.00 0.76 0.01 60 1006.6
20260506134524 66 244 0.9 2.6 0.00 0.76 0.01 60 1006.6
20260506133525 66 253 0.9 2.6 0.00 0.76 0.01 60 1006.6
20260506130555 65 225 0.9 4.3 0.00 0.76 0.01 61 1006.8
20260506110531 63 236 0.9 5.2 0.00 0.76 0.01 70 1007.2
20260506105531 66 259 1.7 2.6 0.00 0.76 0.01 64 1007.2
20260506104532 65 253 1.7 6.1 0.00 0.76 0.01 68 1007.5
20260506101533 63 255 0.9 2.6 0.00 0.76 0.01 69 1007.5
20260506100534 63 281 1.7 5.2 0.00 0.76 0.01 72 1007.5